Regional Weather Roundup
Issued by NWS Nashville, TN

Home | Current Version | Previous Version | Text Only | Print | Product List | Glossary On
Versions: 1 2 3 4 5 6 7 8 9 10 11 12 13 14 15 16 17 18 19 20 21 22 23 24 25 26 27 28 29 30 31 32 33 34 35 36 37 38 39 40 41 42 43 44 45 46 47 48 49 50
000
ASUS44 KOHX 251415
RWROHX
MIDDLE TENNESSEE HOURLY WEATHER ROUNDUP
NATIONAL WEATHER SERVICE NASHVILLE TN
900 AM CDT SAT OCT 25 2014

NOTE: "FAIR" INDICATES FEW OR NO CLOUDS BELOW 12,000 FEET WITH
NO SIGNIFICANT WEATHER AND/OR OBSTRUCTIONS TO VISIBILITY.

* THESE REPORTS ARE NOT UNDER NWS QUALITY CONTROL AND MAY NOT
  REPORT WEATHER SUCH AS PRECIPITATION AND FOG.


TNZ005>011-023>034-057-059-062>066-078-080-251500
...NORTHERN MIDDLE TENNESSEE...

CITY           SKY/WX    TMP DP  RH WIND       PRES   REMARKS
CLARKSVILLE    CLOUDY    57  54  89 S7        30.07S
CROSSVILLE     SUNNY     54  46  74 CALM      30.13R
NASHVILLE      PTSUNNY   53  50  89 S3        30.11R
SMYRNA         SUNNY     51  48  89 CALM      30.12R
SPARTA         SUNNY     50  46  87 CALM      30.11R
$$
TNZ056-058-060-061-075>077-079-093>097-251500
...SOUTHERN MIDDLE TENNESSEE...

CITY           SKY/WX    TMP DP  RH WIND       PRES   REMARKS
COLUMBIA       MOSUNNY  N/A N/A N/A CALM      30.09F
FAYETTEVILLE   SUNNY     54  46  76 S5G21     30.12R
MCMINNVILLE    SUNNY     52  52 100 CALM      30.12R
SHELBYVILLE    SUNNY     54  50  87 CALM      30.12R
TULLAHOMA      SUNNY     52  46  82 CALM      30.12S
WINCHESTER     SUNNY     52  48  87 SE3       30.12F
$$


...KEY TO REMARKS...
VSB - VISIBILITY IN MILES
WCI - WIND CHILL INDEX
HX  - HEAT INDEX




USA.gov is the U.S. government's official web portal to all federal, state and local government web resources and services.